Simultaneous Nadir Overpasses (SNOs) Predictions

Prediction of SNOs between GOES-16 and NOAA-19 Satellite Orbit:

Table of predicted SNOs for the next 14.0 days since TLE Epoch: 9/27/2019
Index Date Time (GOES-16) GOES-16 Lat,Lon NOAA-19 Lat,Lon Distance(km) Time Diff (sec)
1 09/27/2019 22:09:49 -0.00, -75.19 0.23, -74.04 130.73 80
2 09/28/2019 21:58:10 -0.00, -75.19 0.90, -71.20 455.24 80
3 09/30/2019 10:30:46 0.00, -75.19 0.87, -79.00 434.28 80
4 10/01/2019 10:19:06 0.00, -75.20 0.25, -76.15 109.50 80
5 10/02/2019 10:04:48 0.00, -75.20 -0.42, -73.31 215.48 80
6 10/04/2019 22:26:03 0.00, -75.21 -0.70, -78.34 357.78 80
7 10/05/2019 22:14:24 0.00, -75.21 -0.08, -75.49 32.38 80
8 10/06/2019 22:05:26 0.00, -75.22 0.60, -72.65 293.34 80
9 10/09/2019 10:26:22 0.00, -75.25 0.52, -77.61 268.45 80
10 10/10/2019 10:12:03 0.00, -75.27 -0.09, -74.76 57.84 80
11 10/11/2019 10:00:24 0.00, -75.28 -0.77, -71.91 384.17 80




NCC Satellite Simultaneous Nadir Overpasses (SNOs) Prediction Service
